Regional Weather Roundup
Issued by NWS

Home | Current Version | Previous Version | Text Only | Print | Product List | Glossary On
Versions: 1 2 3 4 5 6 7 8 9 10 11 12 13 14 15 16 17 18 19 20 21 22 23 24 25 26 27 28 29 30 31 32 33 34 35 36 37 38 39 40 41 42 43 44 45 46 47 48 49 50
000
ASUS43 KMPX 131701
RWRMN
WEATHER ROUNDUP FOR MINNESOTA
NATIONAL WEATHER SERVICE TWIN CITIES/CHANHASSEN MN
1200 PM CDT SUN JUL 13 2014


NOTE: "FAIR" INDICATES FEW OR NO CLOUDS BELOW 12,000 FEET WITH NO
SIGNIFICANT WEATHER AND/OR OBSTRUCTIONS TO VISIBILITY. N/A MEANS
CURRENT SKY AND/OR WEATHER CONDITIONS ARE NOT AVAILABLE.

MNZ060>063-068>070-131800-
   Twin Cities Metro

CITY           SKY/WX    TMP DP  RH WIND       PRES   REMARKS
TWIN CITIES    MOSUNNY   73  47  39 W8        29.97F
ST PAUL        MOSUNNY   72  47  40 W8G21     29.97S
CRYSTAL        SUNNY     73  49  42 W10       29.96S
BLAINE         SUNNY     73  50  43 W9        29.96F
LAKEVILLE      SUNNY     72  48  43 W9        29.98S
EDEN PRAIRIE   SUNNY     73  49  42 W9        29.97F
SOUTH ST PAUL  SUNNY     73  47  40 W8        29.97S
LAKE ELMO      FAIR      70  52  52 W12G18    29.98F
$$
MNZ001>005-007-008-013>017-022>024-027-028-131800-
   Northwest Minnesota

CITY           SKY/WX    TMP DP  RH WIND       PRES   REMARKS
BEMIDJI        PTSUNNY   66  46  48 W13G24    29.91F
HALLOCK        MOSUNNY   64  46  52 NW21      29.90S
ROSEAU         MOSUNNY   64  50  59 W15G21    29.86S
WARROAD        MOSUNNY   63  52  67 W20G32    29.86R
THIEF RVR FALL MOSUNNY   66  46  48 W18G25    29.92S
CROOKSTON      MOSUNNY   68  48  49 NW15G30   29.93F
FOSSTON        MOSUNNY   66  48  52 W16       29.94S
MOORHEAD       MOSUNNY   72  36  26 NW15G23   29.97F
PARK RAPIDS    MOSUNNY   69  47  45 NW15G22   29.94F
$$
MNZ006-009>011-018-025>026-131800-
   North Central Minnesota

CITY           SKY/WX    TMP DP  RH WIND       PRES   REMARKS
BAUDETTE       PTSUNNY   66  46  48 W14G24    29.84F
FLAG ISLAND    PTSUNNY   63  48  59 W20G26    29.79F
INTL FALLS     PTSUNNY   66  47  50 W13G26    29.81F
WASKISH        MOSUNNY   66  50  55 W17G29    29.87S
BIG FORK       MOSUNNY   64  48  55 W5        29.87F
LONGVILLE      MOSUNNY   66  48  52 W12       29.91F
GRAND RAPIDS   MOSUNNY   66  45  45 W10G24    29.90S
CRANE LAKE     PTSUNNY   64  48  55 SW10G17   29.83F
ORR            PTSUNNY   64  46  52 W12G21    29.82S
COOK           PTSUNNY   63  50  63 W10G18    29.86S
$$
MNZ012-019>021-037-131800-
   Northeast Minnesota

CITY           SKY/WX    TMP DP  RH WIND       PRES   REMARKS
DULUTH         MOSUNNY   68  47  46 W15       29.89F
ELY            PTSUNNY   63  46  55 W15G22    29.84F
HIBBING        MOSUNNY   67  51  56 W12G22    29.88F
EVELETH        PTSUNNY   63  48  59 W13G20    29.88F
DULUTH HARBOR  MOSUNNY   70  50  49 SW12G21   29.88F
TWO HARBORS    PTSUNNY   64  50  59 W15       29.86F
SILVER BAY     MOSUNNY   63  54  72 S8        29.85F
GRAND MARAIS     N/A     70  47  43 VRB7G21   29.80F
G MARAIS ARPRT MOSUNNY   64  43  45 W13G23    29.83F
$$
MNZ029>031-032-039>041-046>048-054>057-064-131800-
   West Central Minnesota

CITY           SKY/WX    TMP DP  RH WIND       PRES   REMARKS
FERGUS FALLS   SUNNY     72  37  28 NW15G26   29.98S
WHEATON        SUNNY     70  50  49 W15       30.01F
MORRIS         SUNNY     72  54  53 W15       29.98F
ALEXANDRIA     SUNNY     70  46  42 NW17G26   30.00S
WADENA         SUNNY     66  46  48 NW10G21   29.96S
GLENWOOD       SUNNY     70  50  49 W14G22    29.99F
APPLETON       SUNNY     75  52  43 NW8       29.99F
BENSON         MOSUNNY   73  55  53 NW14      29.99F
ORTONVILLE     MOSUNNY   73  50  43 NW16      29.99F
MADISON        MOSUNNY   77  54  44 W18G26    30.00S
WILLMAR        FAIR      72  52  49 NW13      30.01F
$$
MNZ033>034-036-042>043-049>051-058-059-131800-
   Central Minnesota

CITY           SKY/WX    TMP DP  RH WIND       PRES   REMARKS
ST CLOUD       MOSUNNY   74  48  39 NW15G24   29.95F
SAUK CENTRE    FAIR      71  47  43 W15G24    29.98F
PAYNESVILLE    MOSUNNY   69  52  54 W15G21    29.99F HAZE
AITKIN         MOSUNNY   72  50  46 W6G18     29.91F
PINE RIVER     MOSUNNY   66  48  52 NW10G16   29.96F
BRAINERD       MOSUNNY   74  46  36 W14G23    29.94F
STAPLES        MOSUNNY   70  43  37 NW18      29.95F
LONG PRAIRIE   FAIR      70  46  43 W17G23    29.98S
LITTLE FALLS   MOSUNNY   70  43  37 W14G26    29.96S
LITCHFIELD     SUNNY     72  54  53 NW12G17   29.99F
BUFFALO        SUNNY     70  47  43 W12       29.98F
MAPLE LAKE     SUNNY     71  52  51 W9        29.98F
$$
MNZ037-044-045-052-053-131800-
   East Central Minnesota

CITY           SKY/WX    TMP DP  RH WIND       PRES   REMARKS
PRINCETON      SUNNY     73  52  46 SW12G17   29.95F
MORA           MOSUNNY   66  48  52 W8G16     29.96F
CAMBRIDGE      SUNNY     73  54  49 W9        29.93F
RUSH CITY      SUNNY     69  52  54 W7        29.95F
MOOSE LAKE     MOSUNNY   68  46  45 W14G22    29.90F
HINCKLEY       FAIR      70  50  49 W13G18    29.94S
CLOQUET        MOSUNNY   68  45  42 SW16      29.89F
MCGREGOR       PTSUNNY   68  48  49 W10G17    29.92S
$$
MNZ071>073-080-081-089-090-097-098-131800-
   Southwest Minnesota

CITY           SKY/WX    TMP DP  RH WIND       PRES   REMARKS
MONTEVIDEO     SUNNY     75  55  50 NW5       30.01S
GRANITE FALLS  SUNNY     73  54  50 W8        30.02S
CANBY          SUNNY     77  52  40 W14G23    30.02S
MARSHALL       SUNNY     73  54  49 NW9       30.01F
REDWOOD FALLS  SUNNY     74  52  46 N8        30.00F
OLIVIA         SUNNY     72  52  49 NW9       30.00S
PIPESTONE      SUNNY     75  54  46 NW10G20   30.05F
WINDOM         SUNNY     77  52  41 NW12G17   30.03F
WORTHINGTON    SUNNY     75  55  50 W10       30.06S
JACKSON        SUNNY     75  52  43 NW10      30.04F
TRACY          SUNNY     76  58  53 NW7       30.02F
SLAYTON        SUNNY     75  52  43 NW8G18    30.04F
$$
MNZ065>067-074>077-082>085-091>093-131800-
   South Central Minnesota

CITY           SKY/WX    TMP DP  RH WIND       PRES   REMARKS
MANKATO        SUNNY     72  50  46 NW13      30.00S
NEW ULM        SUNNY     72  57  60 W7        30.01S
ST JAMES       SUNNY     75  52  43 NW12      30.02S
FAIRMONT       SUNNY     79  55  44 W9        30.02S
GLENCOE        SUNNY     72  48  42 W5        29.99S
FARIBAULT      SUNNY     75  46  35 NW10      30.00R
OWATONNA       SUNNY     73  55  53 NW13      30.00S
WASECA         SUNNY     72  48  43 W14G20    30.03S
ALBERT LEA     MOSUNNY   75  57  53 NW7G21    30.00S
$$
MNZ078>079-086>088-094>096-131800-
   Southeast Minnesota

CITY           SKY/WX    TMP DP  RH WIND       PRES   REMARKS
ROCHESTER      MOSUNNY   73  58  59 NW12      29.99S
RED WING       SUNNY     73  48  40 W7        29.96S
STANTON        SUNNY     72  52  49 W9        29.97S
DODGE CENTER   MOSUNNY   72  55  56 W13G20    29.99S
WINONA         SUNNY     73  52  46 N12       29.96S
PRESTON        SUNNY     74  62  66 W16       29.99S
$$
ABBREVIATIONS USED IN REMARKS
   TC - TEMPERATURES IN CELSIUS
  WCI - WIND CHILL INDEX
   HX - HEAT INDEX
  VSB - VISIBILITY
$$



USA.gov is the U.S. government's official web portal to all federal, state and local government web resources and services.